CZ-6A DEB, 61435

Orbit data source: Space-Track

CZ-6A DEB, 61435 is space debris in LEO originally from a launch on Tue, 06 Aug 2024 UTC launched from the Taiyaun Space Center, China (TSC). Debris objects in space refer to the collection of defunct objects orbiting the Earth. Examples of debris include non-operational satellites, rocket bodies, and fragments generated from explosions, collisions, or faulty payload assembly.

Loading next visibility...
Identifier
61435, 2024-140ZC
Orbit
LEO
Country
Flag of CNCN / PRC
Related business
Manufacturer
SAST
Mission
Spacecraft
Bus & Motor
Unknown
Mass
Unknown
Launch date (UTC)
2024-08-06 (2 years ago)
Launch vehicle
Unknown
Launch site
Taiyaun Space Center, China (TSC)
Object type
Payload
Rocket body
Debris
Shape & HBR
Unknown shape, 0.1 m
Radar Cross Section
Medium (>0.1 m² and <1 m²)

Expand to show TLE details & history
Last TLE update: 15 hours ago

TLE from 15 hours ago
0 CZ-6A DEB
1 61435U 24140ZC  26171.22834007  .00001584  00000-0  30220-3 0  9991
2 61435  88.8804 259.1236 0105404 218.0127 141.3615 14.59957812 97233
Epoch: 2026-06-20T05:28Z
TLE epoch observation values (Epoch: 2026-06-20T05:28:48.582Z)
Latitude
-0.00007°
Longitude
-91.5248°
Altitude
754.955 km
Speed
7.446 km/s
True Right ascension
17h 16m 29s
True Declination
0° 00' 00"
Sunlit
Object was in full shadow at epoch
Visualization orbit readout
Latitude
Unknown
Longitude
Unknown
Altitude
Unknown
Speed
Unknown
Apparent Right ascension
Unknown
Apparent Declination
Unknown
Sunlit
N/A
Visualization observer readout
Local Sidereal Time
07:20:24
Azimuth
Unknown
Elevation
Unknown
Doppler factor
Unknown
Orbital elements
Apogee altitude
764.708 km
Perigee altitude
615.701 km
Semi-major axis
7,068.342 km
Eccentricity
0.01054
Inclination
88.8804°
RAAN
259.1236°
Arg. of periapsis
218.0127°
True anomaly
142.10797°
Mean anomaly
141.3615°
Eccentric anomaly
141.7355°
Mean motion
3.6523 °/min
Orbital period
98.57 mins
BSTAR
0.0003022
Loading maneuver chart data...
Computing Atmospheric mass density...
Loading historical data...
Loading historical data...
Loading historical data...
Loading historical data...
Loading historical data...
Loading historical data...
Loading historical data...

Documentation

Showing up to 5 results
|